User: anonymous   Login
Location: Unspecified
(0.0000°N, 0.0000°E)
Time: 10:17:58
(UTC+00:00)
Language:

Geosat - Orbit

View from above orbital plane
View from above orbital plane
View from above satellite
View from above satellite

Ground track
Ground track

The orbit data is extracted from the following two-line orbital elements,

1 15595U 85021A   17294.96943512 -.00000046 +00000-0 +29648-4 0  9997
2 15595 108.0390 358.8479 0002162 246.0302 188.9162 14.38043912708342
Epoch (UTC): 21 October 2017 23:15:59
Eccentricity: 0.0002162
inclination: 108.0390°
perigee height: 763 km
apogee height: 766 km
right ascension of ascending node: 358.8479°
argument of perigee: 246.0302°
revolutions per day: 14.38043912
mean anomaly at epoch: 188.9162°
orbit number at epoch: 70834

The dashed part of the orbit path shows where the satellite is in the earth's shadow,  

DLR